• MPC Preparation (Info)

  • MPEC 2016-O93 : 2014 NB66

    The following Minor Planet Electronic Circular may be linked-to from your own Web pages, but must not otherwise be redistributed electronically.

    A form allowing access to any MPEC is at the bottom of this page.


    Read MPEC 2016-O92 Read MPEC 2016-O94


    M.P.E.C. 2016-O93                                Issued 2016 July 17, 02:17 UT
    
         The Minor Planet Electronic Circulars contain information on unusual
             minor planets and routine data on comets.  They are published
        on behalf of Division F of the International Astronomical Union by the
              Minor Planet Center, Smithsonian Astrophysical Observatory,
                              Cambridge, MA 02138, U.S.A.
    
                 Prepared using the Tamkin Foundation Computer Network
    
                                  MPC@CFA.HARVARD.EDU
                URL https://www.minorplanetcenter.net/    ISSN 1523-6714
    
                                       2014 NB66
    
    Observations:
         K14N66B  C2011 08 29.44526 22 57 12.707-02 53 32.25         22.4 wLEO093F51
         K14N66B  C2011 08 29.45941 22 57 12.643-02 53 32.58         22.1 wLEO093F51
         K14N66B  C2011 08 29.47352 22 57 12.598-02 53 32.86         22.2 wLEO093F51
         K14N66B  C2011 09 20.33646 22 55 47.428-03 02 12.70         22.2 wLEO093F51
         K14N66B  C2011 09 20.35156 22 55 47.365-03 02 13.12         22.0 wLEO093F51
         K14N66B  C2011 09 20.38198 22 55 47.244-03 02 13.80         22.3 wLEO093F51
         K14N66B* C2014 07 07.58324 23 11 03.868-01 17 25.99         22.4 wLEO093F51
         K14N66B  C2014 07 07.59204 23 11 03.852-01 17 25.96         22.4 wLEO093F51
         K14N66B  C2014 07 07.60082 23 11 03.827-01 17 25.79         22.5 wLEO093F51
         K14N66B  C2014 07 07.60965 23 11 03.828-01 17 26.13         22.4 wLEO093F51
         K14N66B  C2014 07 26.58034 23 10 23.660-01 20 11.59         22.7 wLEO093F51
         K14N66B  C2014 07 26.58972 23 10 23.626-01 20 12.00         22.6 wLEO093F51
         K14N66B  C2014 07 26.59911 23 10 23.614-01 20 11.99         22.7 wLEO093F51
         K14N66B  C2014 08 03.53137 23 10 00.780-01 22 05.21         22.5 wLEO093F51
         K14N66B  C2014 08 03.54270 23 10 00.750-01 22 05.51         22.4 wLEO093F51
         K14N66B  C2014 08 03.55398 23 10 00.714-01 22 05.66         22.1 wLEO093F51
         K14N66B  C2014 08 03.56531 23 10 00.681-01 22 05.83         22.2 wLEO093F51
         K14N66B  C2014 08 20.47306 23 09 03.182-01 27 18.05         22.3 wLEO093F51
         K14N66B  C2014 08 20.48522 23 09 03.139-01 27 18.36         22.4 wLEO093F51
         K14N66B  C2014 08 20.49741 23 09 03.088-01 27 18.58         22.3 wLEO093F51
         K14N66B  C2014 08 20.50960 23 09 03.031-01 27 18.82         22.4 wLEO093F51
         K14N66B  C2014 08 22.47028 23 08 55.778-01 28 00.56         22.5 wLEO093F51
         K14N66B  C2014 08 22.48254 23 08 55.721-01 28 00.79         22.2 wLEO093F51
         K14N66B  C2014 08 22.49480 23 08 55.689-01 28 00.93         22.4 wLEO093F51
         K14N66B  C2014 08 23.48585 23 08 51.978-01 28 21.97         22.4 wLEO093F51
         K14N66B  C2014 08 23.49744 23 08 51.939-01 28 22.21         22.4 wLEO093F51
         K14N66B  C2014 08 23.50904 23 08 51.879-01 28 22.56         22.6 wLEO093F51
         K14N66B  C2014 08 23.52065 23 08 51.855-01 28 22.98         22.3 wLEO093F51
         K14N66B  C2014 09 19.32654 23 07 07.666-01 38 55.49         22.5 wLEO093F51
         K14N66B  C2014 09 19.33799 23 07 07.614-01 38 55.73         22.4 wLEO093F51
         K14N66B  C2014 09 19.34942 23 07 07.578-01 38 56.03         22.5 wLEO093F51
         K14N66B  C2014 09 19.36088 23 07 07.537-01 38 56.42         22.4 wLEO093F51
         K14N66B  C2015 07 23.50379 23 14 16.662-00 51 54.67         22.5 wLEO093F51
         K14N66B  C2015 07 23.51774 23 14 16.633-00 51 54.77         22.3 wLEO093F51
         K14N66B  C2015 07 23.54112 23 14 16.570-00 51 55.11         22.6 wLEO093F51
    
    Observer details:
    F51 Pan-STARRS 1, Haleakala.  Observers B. Gibson, T. Goggia, N. Primak,
        A. Schultz, M. Willman.  Measurers K. Chambers, S. Chastel, Y.-T. Chen,
        L. Denneau, H. Flewelling, M. Holman, M. Huber, R. Jedicke, M. Lackner,
        E. Lilly, H.-W. Lin, E. Magnier, M. Micheli, M. Payne, P. Veres,
        R. Wainscoat, C. Waters, R. Weryk.  1.8-m Ritchey-Chretien + CCD.
    
    Orbital elements:
    2014 NB66
    Epoch 2016 July 31.0 TT = JDT 2457600.5                 MPC
    M 218.80890              (2000.0)            P               Q
    n   0.00321390     Peri.  196.06721     -0.71880412     -0.69123672
    a  45.4758428      Node   299.96137     +0.64690841     -0.62592215
    e   0.0818701      Incl.    4.91618     +0.25461765     -0.36112776
    P 307              H    5.4           G   0.15           U   3
    Residuals in seconds of arc
    110829 F51  0.0   0.0     140726 F51  0.1+  0.0     140823 F51  0.1-  0.2+
    110829 F51  0.2-  0.0     140803 F51  0.1-  0.1+    140823 F51  0.0   0.2+
    110829 F51  0.0   0.0     140803 F51  0.0   0.0     140823 F51  0.2-  0.1+
    110920 F51  0.1+  0.0     140803 F51  0.0   0.0     140823 F51  0.1+  0.1-
    110920 F51  0.0   0.0     140803 F51  0.0   0.0     140919 F51  0.1+  0.0
    110920 F51  0.0   0.0     140820 F51  0.0   0.1+    140919 F51  0.0   0.0
    140707 F51  0.1+  0.1-    140820 F51  0.0   0.0     140919 F51  0.1+  0.0
    140707 F51  0.1+  0.1-    140820 F51  0.0   0.1+    140919 F51  0.2+  0.1-
    140707 F51  0.1-  0.1+    140820 F51  0.2-  0.1+    150723 F51  0.1-  0.0
    140707 F51  0.2+  0.2-    140822 F51  0.1-  0.2-    150723 F51  0.0   0.1+
    140726 F51  0.0   0.1+    140822 F51  0.2-  0.2-    150723 F51  0.0   0.0
    140726 F51  0.1-  0.2-    140822 F51  0.0   0.1-
    
    Ephemeris:
    2014 NB66                a,e,i = 45.48, 0.08, 5                  q = 41.753
    Date    TT    R. A. (2000) Decl.     Delta      r     Elong.  Phase     V
    2016 06 17    23 18 44.1 -00 22 51  48.3809 48.4912    95.6     1.2    22.4
    ...
    2016 07 02    23 18 37.0 -00 22 13  48.1334 48.4894   109.9     1.1    22.4
    ...
    2016 07 10    23 18 26.6 -00 22 37  48.0094 48.4885   117.6     1.1    22.4
    ...
    2016 07 16    23 18 15.9 -00 23 14  47.9219 48.4878   123.3     1.0    22.4
    2016 07 17    23 18 14.0 -00 23 22  47.9078 48.4877   124.3     1.0    22.4
    2016 07 18    23 18 11.9 -00 23 30  47.8939 48.4876   125.3     1.0    22.4
    ...
    2016 07 24    23 17 58.3 -00 24 29  47.8142 48.4869   131.0     0.9    22.4
    ...
    2016 08 01    23 17 37.0 -00 26 10  47.7186 48.4860   138.7     0.8    22.4
    ...
    2016 08 16    23 16 48.9 -00 30 25  47.5782 48.4842   153.2     0.5    22.3
    
    A. U. Tomatic                (C) Copyright 2016 MPC           M.P.E.C. 2016-O93
    

    Read MPEC 2016-O92 Read MPEC 2016-O94


    MPEC number:

    Enter an MPEC number in one of the following forms:

    • 1997-B01 (the full form)
    • J97B01 (the packed version of the full form)
    • B01 (the abbreviated form)